Weather in Kesma

Russia / Tver Oblast     58°23′52″N   37°03′54″E
temp.,
°C
wind,
m/s
gust,
m/s
humid.,
%
clouds,
%
prec.,
mm/h
press.,
hPa
HPBL,
m
8 march, mon
mon800:00−10sw239667 0.2 99172
03:00−11nnw129783 0.4 99221
06:00−15nnw239896 0.1 99574
09:00−10n489298 0.1 999548
12:00−10n5888100 0.2 1003749
15:00−10nnw5887100 0.3 1005801
18:00−11n4991100 0.1 1008694
21:00−14nnw3997100 0.1 1011293
9 march, tue
tue900:00−18nnw2699100 0.1 1013144
03:00−21nnw2310099 0.1 101567
06:00−24nnw259982 0.0 101794
09:00−23n369676 0.0 1019239
12:00−19n359175 0.0 1020398
15:00−17n358985 0.0 1021511
18:00−20nnw3696100 0.0 1022176
21:00−24n259792 0.0 102596
10 march, wed
wed1000:00−26nne23982 0.0 102743
03:00−27n22981 0.0 102820
06:00−28nnw22960 0.0 102920
09:00−24nw23910 0.0 1030126
12:00−17wnw35840 0.0 1030308
15:00−13nw47790 0.0 1029529
18:00−15nw239335 0.0 102967
21:00−17nw239855 0.0 103058
11 march, thu
thu1100:00−18nw239999 0.0 103129
03:00−20wnw1210092 0.1 103220
06:00−21wnw229937 0.0 103220
09:00−17w129519 0.0 103284
12:00−11sw12854 0.0 1031315
15:00−9ssw348831 0.0 1030480
18:00−12s359486 0.0 1028123
21:00−14ssw4128743 0.0 1028273
12 march, fri
fri1200:00−15ssw512840 0.0 1027294
03:00−15ssw512870 0.0 1026265
06:00−16ssw511890 0.0 1025258
09:00−14ssw512850 0.0 1024270
12:00−10s612840 0.0 1023371
15:00−7s613830 0.0 1021558
18:00−8s615840 0.0 1019666
21:00−9s717862 0.0 1018682